Flag for Vietnam Weather past 2 weeks in Hanoi, Vietnam

Now
86 °F

Broken clouds.


Feels Like: 97 °F
Forecast: 79 / 93 °F
Wind: 10 mph from Southeast

Location: Ha Noi Airport

Current Time: Sep 4, 2015 at 3:53:59 PM

Latest Report: Sep 4, 2015 at 3:30 PM


Visibility: N/A

Pressure: 29.80 "Hg

Humidity: 75%

Dew point: 77 °F

Location of HanoiLocation

Historic Weather in Hanoi — Graph

°F

Hanoi temperature yesterday

Maximum temperature yesterday: 84 °F (at 2:00 PM)
Minimum temperature yesterday: 77 °F (at 6:00 AM)
Average temperature yesterday: 79 °F

Past Weeks' High & Low Weather Summary

 TemperatureHumidityPressure
High97 °F (Aug 22, 1:00 PM)100% (Sep 3, 8:00 AM)29.89 "Hg (Sep 3, 8:00 AM)
Low77 °F (Aug 31, 5:30 AM)41% (Aug 22, 6:00 PM)29.50 "Hg (Aug 23, 5:00 PM)
Average85 °F75%29.68 "Hg
* Reported Aug 20 2:00 PM — Sep 4 2:30 PM, Hanoi, Weather by CustomWeather, © 2015

Note: Actual official high and low records may vary slightly from our data, if they occured in-between our weather recording intervals... More about our weather records

Advertising

Hanoi weather history for previous 24 hours

 ConditionsComfort  
Time TempWeatherWind HumidityBarometerVisibility
2:30 PM
Fri, Sep 4
84 °FBroken clouds.12 mph79%29.80 "HgN/A
2:00 PM84 °FBroken clouds.13 mph79%29.83 "HgN/A
1:30 PM86 °FBroken clouds.10 mph75%29.83 "HgN/A
1:00 PM86 °FBroken clouds.10 mph79%29.86 "HgN/A
12:30 PM82 °FBroken clouds.9 mph84%29.86 "HgN/A
12:00 PM82 °FBroken clouds.9 mph84%29.86 "HgN/A
11:30 AM82 °FBroken clouds.10 mph84%29.86 "HgN/A
11:00 AM81 °FBroken clouds.12 mph89%29.89 "HgN/A
10:30 AM81 °FLight rain. Broken clouds.9 mph89%29.86 "Hg5 mi
10:00 AM81 °FLight rain. Broken clouds.9 mph94%29.89 "Hg5 mi
9:30 AM79 °FRain. Broken clouds.9 mph94%29.89 "Hg4 mi
9:00 AM79 °FRain. Broken clouds.8 mph94%29.89 "Hg3 mi
8:30 AM79 °FRain. Broken clouds.8 mph94%29.89 "Hg2 mi
8:00 AM79 °FRain. Partly sunny.9 mph94%29.86 "Hg4 mi
7:30 AM79 °FThundershowers. Broken clouds.8 mph94%29.86 "HgN/A
7:00 AM79 °FBroken clouds.9 mph94%29.83 "HgN/A
6:30 AM79 °FHeavy rain. Broken clouds.9 mph94%29.83 "Hg1 mi
6:00 AM79 °FBroken clouds.9 mph94%29.83 "Hg4 mi
5:30 AM79 °FPassing clouds.7 mph94%29.83 "Hg4 mi
4:30 AM79 °FFog.6 mph94%29.80 "Hg2 mi
4:00 AM79 °FFog.7 mph94%29.80 "Hg3 mi
3:30 AM79 °FPassing clouds.6 mph94%29.80 "Hg3 mi
3:00 AM79 °FPassing clouds.7 mph94%29.80 "Hg3 mi
2:30 AM79 °FFog.5 mph94%29.80 "Hg2 mi
2:00 AM79 °FFog.3 mph94%29.80 "Hg2 mi
1:00 AM79 °FPassing clouds.5 mph94%29.83 "Hg3 mi
12:30 AM81 °FPassing clouds.6 mph89%29.83 "Hg4 mi
12:00 AM81 °FPassing clouds.5 mph89%29.86 "Hg4 mi
11:30 PM
Thu, Sep 3
79 °FFog.5 mph100%29.86 "Hg2 mi
11:00 PM79 °FFog.3 mph94%29.86 "Hg2 mi
10:30 PM81 °FPartly cloudy.6 mph94%29.86 "Hg3 mi
10:00 PM81 °FFog.5 mph94%29.86 "Hg3 mi
9:30 PM81 °FPartly cloudy.5 mph94%29.86 "Hg3 mi
9:00 PM81 °FFog.3 mph94%29.86 "Hg3 mi
8:30 PM79 °FPartly cloudy.5 mph94%29.83 "Hg3 mi
8:00 PM79 °FPartly cloudy.5 mph94%29.80 "Hg4 mi
7:30 PM79 °FPartly cloudy.7 mph94%29.80 "Hg5 mi
7:00 PM79 °FRain. Partly cloudy.7 mph94%29.80 "Hg4 mi
6:00 PM79 °FRain. Broken clouds.7 mph94%N/A3 mi
5:30 PM79 °FRain. Partly sunny.7 mph94%N/A3 mi
5:00 PM79 °FThundershowers. Partly sunny.8 mph94%29.77 "Hg4 mi
4:30 PM79 °FRain. Broken clouds.9 mph94%29.77 "Hg4 mi
4:00 PM82 °FLight rain. Broken clouds.7 mph89%29.77 "HgN/A
3:30 PM84 °FBroken clouds.7 mph79%29.77 "HgN/A
3:00 PM84 °FBroken clouds.3 mph74%29.77 "HgN/A
Weather by CustomWeather, © 2015

See weather overviewHow to use our weather pages